GEFSMA_500_meanwind_162.txt.gz
Wind_Speed
2 2 2 2 3 3 2 2 1 1 1 1 0 1 1 1 1 1 1 2 2 3 3 3 3 3 3 3 4 4 5 5 5 5 5 5 6 6 6 6 6 6 6
2 2 3 3 3 3 2 2 1 1 1 1 0 1 1 2 2 2 3 3 3 3 4 4 4 4 4 5 5 5 6 6 6 7 7 7 7 7 7 7 7 7 8
1 2 4 4 3 3 3 3 2 2 2 2 2 2 2 3 3 4 4 4 4 4 5 5 5 6 6 6 7 7 7 8 8 8 9 9 9 8 8 9 9 9 10
2 3 4 4 3 4 4 4 3 2 2 3 3 3 3 4 4 4 5 5 5 6 6 6 7 7 8 8 8 8 9 10 10 10 10 10 10 10 10 11 11 11 12
2 3 3 4 4 4 4 5 4 4 3 4 4 5 5 5 5 5 6 6 7 7 8 8 8 9 10 10 10 10 10 10 11 11 11 11 11 11 12 12 12 12 13
2 3 4 4 4 4 4 5 6 5 5 6 6 6 7 7 7 7 7 8 8 9 9 9 10 10 10 11 12 12 12 12 12 12 13 13 13 13 14 13 14 14 14
3 4 4 5 5 5 5 6 7 7 7 7 7 7 8 9 9 9 9 9 10 10 10 10 10 11 12 12 13 13 13 13 13 14 14 14 14 15 15 15 15 15 16
4 5 5 6 6 6 6 7 8 8 8 8 9 9 9 10 10 11 11 11 11 10 10 11 12 13 13 13 13 14 14 14 15 16 16 16 17 17 17 17 17 17 18
5 5 6 7 7 7 8 8 8 9 9 10 10 10 10 11 11 11 12 12 12 12 12 12 13 14 14 14 15 15 16 16 17 17 18 18 18 19 19 19 19 20 20
6 6 7 7 8 9 9 10 10 10 10 10 11 12 12 12 12 13 14 14 14 14 14 14 14 14 15 16 16 17 17 18 18 18 19 19 20 20 20 20 20 21 22
8 8 8 9 10 10 11 11 11 12 12 13 13 13 13 14 14 14 15 15 15 15 15 16 16 16 17 18 18 19 19 19 19 19 19 20 21 21 22 22 21 22 23
8 8 9 10 10 11 12 13 13 14 14 14 14 14 14 15 15 15 15 15 16 17 17 18 17 18 19 19 19 20 21 21 21 21 21 22 22 22 23 23 23 23 24
7 8 9 10 11 11 12 13 14 14 15 15 15 15 15 15 16 17 17 17 18 19 19 19 19 20 20 20 20 21 21 21 22 22 22 23 23 24 24 24 25 25 26
8 8 9 10 11 11 13 13 14 14 15 15 16 17 17 17 18 18 18 19 19 20 20 20 20 20 21 21 21 22 22 21 22 22 22 23 24 24 24 26 27 27 28
8 9 10 10 10 11 12 13 13 13 14 15 16 16 17 18 18 18 19 19 19 19 19 20 21 21 21 21 22 22 22 22 22 22 23 24 24 25 25 26 28 29 30
8 8 9 9 10 10 11 12 12 12 13 14 15 16 16 17 17 17 17 17 18 19 20 21 21 22 23 23 23 23 22 22 23 24 25 26 27 27 28 28 29 29 29
9 9 9 10 10 11 11 11 12 13 13 14 16 16 16 16 17 17 18 18 18 19 19 20 21 22 22 23 23 23 24 25 25 26 27 27 28 29 30 29 29 29 30
10 10 10 10 11 11 11 11 12 12 13 14 15 15 16 17 17 18 18 18 19 19 19 19 20 21 22 23 23 24 26 26 27 27 27 28 29 29 30 30 30 30 31
11 11 11 11 12 12 12 12 12 13 13 14 15 15 16 17 18 18 18 18 19 19 20 20 21 22 22 23 25 25 26 26 27 27 27 28 29 29 30 30 30 30 31
12 12 12 12 13 13 13 13 13 14 14 15 15 16 16 16 16 17 17 18 19 20 21 21 22 22 23 24 25 26 26 27 27 27 28 28 28 29 30 31 31 31 32
13 13 13 13 13 14 14 15 15 16 17 16 16 17 17 17 17 17 18 19 20 21 21 22 22 23 24 26 26 27 28 28 28 28 29 29 29 29 30 31 31 32 33
13 13 13 14 15 15 15 16 16 16 17 17 18 18 18 18 18 19 19 20 21 21 22 23 23 24 25 26 28 28 29 29 28 28 29 28 29 30 31 31 32 32 33
15 15 15 15 15 16 16 17 17 17 18 19 19 19 19 19 20 20 21 21 22 22 23 24 25 25 26 27 28 28 28 28 28 29 30 30 30 31 32 32 32 33 33
16 17 17 17 17 17 17 18 18 18 19 19 19 20 20 20 21 22 22 23 24 24 24 25 25 26 27 28 28 28 27 28 29 30 31 31 31 32 33 33 33 34 34
18 18 18 18 18 18 18 19 19 19 19 19 20 20 21 21 22 23 23 24 24 25 26 26 27 27 28 28 28 28 29 30 31 31 31 32 32 33 33 33 33 34 34
19 19 19 19 20 20 20 20 20 20 20 20 21 21 22 23 23 24 24 25 25 26 27 28 28 29 29 29 29 30 31 31 31 32 32 33 33 33 33 33 33 34 34

GEFSMA_500_meanwind_168.txt.gz
Wind_Speed
5 5 5 5 5 5 5 5 4 5 5 4 3 3 3 3 2 2 2 2 3 3 3 3 3 4 4 4 3 4 4 5 5 5 5 6 6 6 6 5 5 5 6
4 5 5 5 4 4 5 4 4 4 4 4 3 3 3 2 2 2 2 3 3 3 3 4 4 4 4 4 5 5 6 6 7 7 8 8 8 7 7 7 7 7 7
4 4 5 4 4 4 4 4 4 4 4 3 3 3 3 2 2 2 3 3 4 4 4 5 5 6 6 6 6 7 7 8 9 9 9 9 9 9 9 9 9 9 9
4 4 4 4 4 4 4 4 4 4 4 3 3 3 3 3 3 3 4 4 5 6 6 7 7 7 7 8 8 8 9 10 10 10 10 10 10 10 11 11 11 11 11
4 4 4 4 4 4 5 4 4 4 4 4 4 4 5 5 5 5 5 6 6 7 7 8 8 9 9 9 9 10 11 11 11 11 11 11 11 11 12 12 12 13 13
3 3 4 4 4 4 5 5 5 5 5 5 5 6 6 6 7 7 7 7 8 8 8 9 9 10 10 11 11 11 12 12 12 13 13 12 13 13 14 14 14 14 15
3 3 4 5 5 5 6 6 6 6 7 7 7 7 7 8 8 8 9 9 9 9 10 10 10 12 12 13 13 13 13 13 14 14 14 15 15 15 16 16 16 16 17
4 4 4 5 6 6 7 8 8 8 8 9 8 8 8 9 10 10 10 11 11 12 12 12 12 13 14 14 14 14 14 14 15 16 17 17 17 17 18 18 18 18 19
4 4 5 5 7 8 8 8 9 9 9 10 10 10 10 10 11 11 12 12 12 13 13 13 14 14 15 15 15 15 15 16 17 17 18 18 18 19 19 19 19 20 20
4 5 5 6 7 7 8 9 10 10 10 10 11 11 12 12 12 12 13 13 13 14 14 14 14 15 16 16 16 17 17 17 18 18 19 19 20 20 20 20 21 21 21
5 6 6 7 8 8 9 10 11 11 11 12 12 12 13 13 13 14 14 15 15 14 15 15 15 16 17 17 17 17 17 17 18 18 18 20 20 20 21 21 21 21 22
5 6 7 8 9 9 10 10 10 11 12 13 13 14 15 15 15 15 15 16 16 16 16 17 17 18 17 18 19 19 19 19 19 19 20 20 20 20 20 19 20 20 21
6 7 7 8 9 9 10 10 11 11 12 12 13 14 14 15 16 16 16 17 18 18 18 18 18 18 18 19 18 19 20 21 21 21 21 21 21 21 21 21 22 23 24
7 8 8 8 9 10 11 11 12 12 12 12 12 13 15 15 16 16 17 18 18 18 18 18 18 19 19 19 19 20 21 21 21 21 21 21 21 22 22 24 25 26 27
8 9 9 10 10 10 11 12 12 13 13 13 13 13 14 15 16 17 17 18 17 17 18 18 18 19 20 20 20 21 21 21 21 22 21 22 23 23 24 25 26 27 28
8 8 9 10 10 10 11 12 12 13 14 14 14 15 15 16 16 17 17 17 17 17 18 19 20 20 20 21 21 20 21 21 22 23 24 24 24 25 25 25 26 27 28
9 9 10 10 10 11 11 11 12 13 14 14 14 15 16 16 17 16 17 17 17 17 17 19 20 20 21 21 21 22 22 22 23 24 24 24 25 25 26 27 27 28 29
10 10 10 11 11 11 11 12 13 14 14 14 14 14 15 15 15 16 16 17 17 18 18 18 19 20 21 21 21 23 23 23 24 24 25 25 25 26 27 28 28 28 29
11 11 11 12 12 12 12 13 13 14 14 14 15 15 16 16 16 16 16 17 18 18 18 18 20 20 21 21 21 22 23 24 24 25 25 25 26 26 28 28 28 28 28
12 12 12 13 13 13 13 13 13 14 14 15 15 16 16 16 17 17 17 17 18 18 19 20 20 20 21 22 22 23 24 24 25 26 27 27 28 28 29 29 29 28 28
13 13 14 14 14 14 14 14 14 15 15 16 16 17 17 17 18 18 19 19 19 20 20 20 21 21 22 22 23 24 25 25 26 27 27 28 29 29 29 29 29 29 29
15 15 15 16 16 16 15 15 16 16 17 16 17 18 18 19 19 20 20 20 21 21 21 21 21 22 23 24 25 25 25 26 27 28 28 28 29 29 29 30 30 30 31
16 17 17 17 18 17 17 16 17 18 18 18 18 18 19 19 20 21 21 22 22 22 22 22 22 23 24 25 26 26 27 27 28 28 29 29 29 30 30 30 30 31 31
18 18 18 18 19 19 18 18 18 19 18 19 19 20 20 20 21 21 21 22 22 22 23 23 24 25 25 26 27 28 28 29 29 29 30 30 30 31 31 32 32 32 31
20 20 20 21 21 20 20 20 20 20 20 20 20 21 21 21 22 23 23 23 23 24 25 25 26 26 27 27 28 29 29 29 30 30 30 31 31 32 32 32 32 31 31
22 22 22 22 23 23 22 22 22 22 22 22 22 22 23 24 24 24 24 25 25 26 27 27 28 28 28 29 29 29 30 30 30 30 31 32 32 33 33 32 32 31 31

GEFSMA_500_meanwind_174.txt.gz
Wind_Speed
2 3 3 3 4 4 4 3 3 4 4 4 4 4 3 3 2 2 2 2 2 2 2 2 3 3 3 3 3 4 4 4 4 5 5 6 6 6 6 5 5 5 6
1 2 2 3 2 3 3 3 3 3 3 3 3 3 3 2 2 2 2 2 3 3 3 4 4 4 4 4 4 5 4 5 6 6 7 7 8 8 7 7 7 7 7
1 2 1 2 2 3 3 3 3 3 3 3 3 3 3 3 3 2 3 3 4 4 4 5 5 5 5 5 5 5 5 6 7 8 8 8 9 9 9 9 9 9 9
1 2 2 2 2 2 3 3 3 3 3 3 3 3 3 4 4 4 4 4 4 5 6 6 6 6 6 7 7 7 7 8 8 9 9 10 10 10 10 10 10 11 11
2 2 3 3 2 2 2 2 3 4 4 4 4 5 5 5 5 5 5 6 5 6 6 6 7 8 8 8 9 9 9 10 10 10 10 10 11 11 11 11 11 12 12
2 2 3 3 3 3 3 3 4 4 4 5 5 6 7 7 7 7 7 7 7 7 7 7 8 8 9 10 10 10 11 11 12 12 12 12 12 12 12 12 13 13 14
2 3 3 3 4 5 5 5 5 5 5 6 6 7 8 8 8 8 8 9 9 9 9 9 10 10 10 11 11 11 11 12 12 13 13 13 14 14 14 14 14 15 16
3 3 4 3 4 5 5 6 6 6 7 7 8 8 9 9 10 9 10 10 10 11 11 11 12 12 12 12 12 12 12 13 13 13 14 14 15 15 16 17 17 17 18
3 3 4 4 5 5 6 6 7 7 8 8 9 9 9 10 10 11 11 11 12 12 12 12 12 12 12 13 13 13 13 14 14 15 16 16 16 16 17 18 19 19 19
4 4 4 5 6 6 6 6 7 8 8 9 9 9 10 10 11 11 12 12 13 13 13 13 13 13 13 14 15 15 16 16 17 16 16 16 16 17 17 17 18 19 19
5 5 5 6 6 7 7 7 8 9 9 10 10 10 10 11 12 12 12 13 13 14 14 14 14 14 15 15 16 17 17 17 17 17 17 17 17 17 18 18 19 19 19
6 6 6 7 7 8 8 8 9 9 10 10 11 11 12 12 13 14 14 14 14 15 15 15 15 16 16 16 17 16 16 17 17 17 18 18 18 18 19 19 19 19 19
6 6 7 7 8 8 9 9 10 11 11 11 12 12 13 13 14 14 14 14 14 15 16 16 16 17 16 16 17 17 16 17 17 18 18 18 18 19 20 20 20 20 21
8 8 9 8 8 9 10 10 11 11 12 12 13 13 13 14 14 14 14 14 14 15 16 16 17 17 17 17 17 16 16 17 18 19 19 19 20 21 21 21 22 22 23
9 10 10 9 10 10 10 10 10 11 12 13 13 13 13 14 15 15 15 15 15 15 16 16 17 17 18 18 18 18 18 18 18 19 19 20 21 22 22 23 23 24 24
10 11 11 10 10 10 10 10 10 11 12 13 13 14 14 15 15 15 15 15 15 16 16 17 17 18 19 19 19 19 18 19 20 20 21 21 22 23 23 23 24 25 25
11 11 11 12 12 12 11 11 11 11 12 13 13 13 13 14 15 15 15 15 15 15 16 17 17 18 18 18 19 19 19 20 21 21 22 22 22 23 23 23 24 24 25
12 12 12 13 13 13 12 12 13 13 13 13 13 13 14 14 15 14 15 15 15 16 16 17 18 18 19 19 20 21 21 21 21 21 22 23 23 23 23 24 25 25 26
13 13 13 13 13 13 13 13 14 14 14 14 15 15 15 15 15 15 16 16 17 17 18 18 19 19 19 20 20 21 22 22 22 23 23 24 24 24 24 25 26 27 27
14 15 15 15 15 15 14 14 15 15 15 16 16 16 16 16 16 16 17 18 18 19 19 20 20 20 20 21 21 21 22 22 23 24 24 25 25 26 26 26 27 27 28
16 16 16 17 16 16 16 16 16 16 17 17 17 17 17 17 17 18 19 19 20 20 21 21 21 22 21 21 22 22 23 24 24 25 25 26 26 27 27 27 28 28 28
18 17 18 18 18 17 17 17 17 18 18 18 18 19 19 19 19 19 20 21 21 22 22 22 22 23 23 24 24 24 24 25 26 26 27 27 27 27 28 29 29 29 29
19 19 19 19 19 18 18 19 19 19 20 20 20 20 20 20 20 21 21 22 22 23 23 23 23 24 24 25 25 26 26 26 27 27 28 28 28 29 29 29 29 29 30
20 20 20 21 21 20 20 20 20 21 21 21 21 22 22 22 22 22 23 23 24 24 24 25 25 25 26 26 26 27 27 28 28 29 30 30 30 30 30 31 30 30 30
23 22 22 22 23 23 23 23 23 24 24 24 24 23 23 24 24 24 25 25 25 25 26 26 27 27 27 28 28 29 29 29 30 31 31 32 31 32 32 32 31 31 31
24 24 24 24 24 24 25 25 26 26 26 26 26 26 25 26 26 27 27 26 26 26 27 28 28 28 29 30 30 30 31 31 31 31 32 33 33 33 33 32 31 31 31

GEFSMA_500_meanwind_180.txt.gz
Wind_Speed
3 3 3 3 4 3 3 3 3 4 4 4 4 3 4 3 3 3 3 3 3 3 3 3 3 4 4 5 5 5 6 6 6 5 5 6 6 6 6 7 7 7 7
3 3 3 3 3 3 3 4 4 4 4 4 4 4 3 3 3 3 3 3 4 4 5 5 5 5 5 6 6 6 7 7 6 7 7 8 8 8 8 9 9 9 10
3 2 2 3 3 3 4 4 4 4 4 4 3 4 4 4 4 4 4 4 4 5 5 5 5 5 5 6 6 7 7 8 8 9 9 10 10 11 10 11 11 11 11
2 2 2 2 2 3 4 4 5 4 4 4 4 4 4 5 5 5 5 5 5 6 5 5 6 6 7 7 7 8 8 9 9 9 10 11 11 12 12 12 13 13 13
2 2 2 2 3 3 4 4 5 5 4 4 5 5 5 6 6 6 7 7 7 7 7 7 7 7 8 8 9 10 10 11 11 11 12 12 12 13 13 13 14 14 14
2 3 3 3 3 3 4 4 5 5 5 5 5 6 5 6 7 8 8 8 8 8 8 9 9 9 9 10 10 11 11 12 13 13 13 13 13 14 14 14 15 15 15
3 3 3 3 3 3 4 4 5 5 5 5 6 6 7 7 8 9 9 9 9 10 10 10 10 11 11 12 12 12 13 14 14 14 15 15 15 15 15 15 16 16 17
2 2 2 2 3 3 4 4 5 5 6 7 7 7 8 8 9 10 10 11 11 11 12 12 12 12 13 13 13 13 14 14 14 14 15 16 17 17 16 16 17 17 18
1 1 2 2 3 3 3 4 5 6 7 7 7 7 8 8 9 10 10 11 12 12 12 12 13 13 13 14 14 14 15 15 16 16 16 17 17 17 17 17 18 18 18
1 0 2 2 3 3 3 4 5 6 7 7 7 8 8 8 9 10 11 11 11 12 12 12 12 13 14 14 14 15 16 17 17 17 17 16 16 17 18 18 18 18 19
2 2 2 3 3 4 4 5 6 7 7 7 8 8 8 9 9 10 11 12 12 12 12 12 13 13 14 14 14 15 16 16 16 16 16 16 16 17 18 18 19 19 20
3 3 3 3 4 5 5 5 6 7 8 9 9 9 9 10 10 10 11 12 12 13 13 13 13 14 15 15 15 16 16 16 16 16 16 17 17 18 19 19 19 20 20
4 5 4 4 5 5 6 6 7 8 9 9 9 10 10 10 11 12 12 12 13 14 14 14 14 15 14 15 16 16 16 16 17 17 18 18 18 18 19 20 21 21 21
5 6 6 6 6 7 7 8 9 9 10 10 10 11 11 12 12 12 13 13 14 14 14 14 15 15 15 16 16 16 16 16 16 17 17 17 17 18 19 20 21 21 21
6 6 7 7 7 7 8 8 9 10 10 10 10 11 12 13 13 13 13 13 14 14 15 15 15 15 16 16 16 16 16 16 17 18 18 18 18 19 19 20 21 22 22
8 8 7 8 8 8 9 9 10 10 10 10 10 10 11 12 13 13 13 13 14 14 15 15 15 16 16 16 16 17 17 18 19 19 19 19 20 21 21 22 22 23 23
8 8 8 8 8 9 10 10 10 10 11 11 11 12 11 12 12 13 13 13 13 14 15 15 15 16 16 17 17 17 18 19 19 19 19 20 21 22 22 23 23 24 24
8 9 9 9 9 10 11 12 12 11 11 11 12 12 13 13 13 13 14 15 15 15 15 15 16 17 17 17 18 19 19 19 19 19 20 21 21 22 23 24 25 24 24
10 10 10 10 11 11 12 12 11 11 11 11 12 12 13 14 14 14 15 15 16 16 16 17 18 18 18 19 19 19 19 19 20 20 21 22 23 23 24 26 26 26 26
11 11 11 12 12 12 12 12 12 11 11 12 13 14 14 15 15 15 16 16 17 18 18 18 19 19 20 20 20 20 20 20 21 22 23 24 25 25 26 26 26 26 26
13 13 13 13 12 13 13 13 13 13 13 13 14 15 16 16 17 17 17 18 19 19 19 19 19 20 20 20 20 21 21 22 22 23 24 25 26 26 26 26 26 26 27
15 15 15 15 15 15 15 14 14 14 15 16 16 16 17 17 18 18 19 20 20 20 19 20 20 21 21 21 22 23 23 24 24 25 26 27 27 28 28 27 27 27 28
17 17 17 17 17 17 17 17 17 17 18 18 17 17 18 19 19 19 19 20 20 20 21 21 21 22 23 23 24 25 25 26 26 27 28 28 29 29 29 29 29 29 30
20 20 19 19 19 19 19 19 20 20 21 21 21 20 20 20 20 21 21 21 21 22 23 23 23 24 25 25 26 27 27 27 28 29 29 30 30 30 30 30 31 31 31
22 21 20 20 21 21 22 21 21 22 23 24 23 23 23 22 22 23 23 23 23 24 24 24 25 25 26 27 27 28 28 28 29 30 30 30 30 30 31 31 31 32 32
23 23 22 22 22 23 23 23 24 24 25 24 25 25 24 24 24 24 25 25 25 25 26 26 27 28 28 28 28 29 29 30 30 31 31 31 31 31 31 31 32 33 33

GEFSMA_500_meanwind_186.txt.gz
Wind_Speed
3 3 3 4 3 3 3 3 3 3 3 3 3 3 3 3 2 2 2 3 3 3 4 4 5 6 6 6 6 6 6 6 7 7 7 7 7 7 7 7 7 7 8
3 3 3 4 3 3 3 3 3 3 4 4 3 3 3 3 3 3 3 4 4 4 4 5 5 6 6 7 8 8 8 8 8 8 8 8 8 9 9 9 9 9 10
3 3 3 4 3 3 3 4 4 4 4 4 4 3 4 4 5 5 5 5 5 5 5 6 6 7 7 8 9 9 9 9 10 10 10 10 10 10 11 11 11 11 11
3 3 3 3 3 3 3 4 4 4 4 4 4 4 4 5 6 6 6 6 6 7 7 8 8 8 9 9 9 9 10 10 11 11 12 12 12 12 12 12 12 12 12
2 2 2 3 3 3 4 4 4 5 4 5 5 5 5 6 6 7 7 8 8 8 8 9 9 10 10 10 10 10 11 11 12 13 14 14 14 14 14 14 14 14 14
1 1 2 2 3 3 4 4 5 5 6 6 6 6 6 7 7 7 8 8 9 9 9 10 10 11 11 11 12 12 13 14 14 15 15 16 16 16 16 15 16 16 16
1 2 2 2 2 3 4 5 6 6 6 6 7 7 8 8 9 9 9 10 10 10 11 12 12 12 13 13 13 14 14 14 15 15 16 16 16 16 17 17 17 17 17
2 3 3 2 2 3 4 5 5 6 7 7 8 8 8 9 10 10 11 11 11 12 12 13 13 13 13 14 14 14 15 15 16 16 16 17 17 18 17 17 18 18 18
1 2 3 3 3 4 5 6 6 7 7 8 8 9 10 10 11 12 11 11 12 12 13 13 14 14 14 14 15 15 15 16 17 16 17 17 18 18 18 18 18 18 18
3 3 3 4 5 5 5 6 7 7 8 8 9 9 10 10 11 12 12 12 12 13 13 14 14 14 14 14 14 15 15 16 16 17 17 17 17 18 18 18 18 19 20
4 4 4 4 5 6 6 7 8 8 9 9 10 10 11 11 12 12 13 13 13 13 14 14 14 15 15 16 16 16 16 16 17 17 17 17 17 18 19 19 19 20 20
4 4 5 5 6 7 7 8 9 9 10 11 11 12 12 12 12 13 14 14 14 15 15 15 15 15 15 15 16 16 16 16 17 18 18 18 18 18 19 18 19 19 20
6 6 6 7 7 7 8 9 10 10 11 12 13 13 14 14 14 14 15 15 16 16 16 16 16 16 16 16 16 16 17 17 18 19 19 19 19 19 19 19 19 20 21
8 7 7 8 8 8 9 9 10 10 11 12 13 14 15 15 15 15 16 16 17 18 18 18 17 17 17 17 17 17 17 18 18 18 19 19 20 20 20 20 21 22 22
8 8 8 9 9 9 9 10 10 11 12 13 14 15 15 15 15 16 16 17 17 18 18 18 19 18 18 19 19 19 19 19 19 19 20 20 21 21 21 21 22 23 23
9 9 9 9 9 10 10 10 11 12 12 13 14 15 16 16 16 16 16 17 17 18 18 19 20 20 19 19 19 20 20 20 20 20 21 21 22 23 22 23 23 24 24
10 10 10 9 10 10 11 11 12 12 12 13 14 14 14 14 14 15 15 16 17 18 18 19 20 20 20 20 20 20 20 20 20 21 21 22 22 23 24 24 24 25 26
12 12 12 11 11 11 12 12 12 13 13 14 14 14 14 15 16 16 17 17 18 18 19 19 20 20 21 21 21 21 21 21 21 21 22 22 23 23 24 24 25 26 26
13 13 13 13 13 12 13 13 14 14 14 14 15 15 16 16 17 17 17 18 18 19 20 21 21 21 22 22 22 22 22 23 23 23 23 23 24 25 25 26 27 27 28
15 15 15 15 15 14 14 15 15 15 15 15 15 15 16 17 18 19 19 19 19 20 21 22 22 23 23 23 23 23 24 24 24 24 25 25 25 26 26 27 28 29 29
17 17 17 17 17 17 16 17 16 16 16 16 16 17 17 18 19 20 20 20 21 21 22 23 23 23 23 24 25 25 25 25 25 26 27 27 28 28 28 29 30 31 31
19 20 20 19 18 19 19 19 19 18 18 18 18 18 19 20 21 21 21 21 22 23 23 24 24 23 23 25 26 26 26 26 27 28 29 29 29 30 30 30 31 31 31
21 20 21 20 20 20 20 20 20 20 20 20 20 21 21 21 22 22 23 23 23 24 24 25 25 25 25 26 27 27 27 28 29 29 30 30 30 30 31 31 31 32 32
22 21 21 20 19 20 20 20 21 22 22 22 22 22 22 23 23 24 24 25 25 26 26 26 25 25 26 27 28 29 29 30 30 30 31 31 31 31 32 32 32 32 33
24 23 22 21 21 21 21 22 22 23 23 24 24 24 24 24 25 25 25 26 26 27 27 27 27 28 28 29 29 30 30 31 31 31 31 32 32 33 33 33 33 33 33
25 25 25 23 23 23 23 24 24 25 25 26 26 26 26 27 27 27 27 28 28 29 29 29 29 29 30 31 31 32 32 32 32 32 32 33 33 33 33 34 34 35 35

GEFSMA_500_meanwind_192.txt.gz
Wind_Speed
5 6 5 5 5 5 5 4 4 4 4 4 4 4 4 3 3 3 3 3 3 3 4 4 4 4 5 5 6 7 7 7 6 6 6 7 7 7 7 7 8 8 8
5 5 5 5 5 4 5 5 4 4 4 4 4 3 3 3 3 3 4 3 4 4 5 5 5 5 6 6 7 8 8 8 8 8 8 8 8 9 9 9 9 9 9
5 4 4 5 5 5 5 4 4 4 4 4 4 4 3 3 3 4 4 4 5 5 6 6 7 7 7 8 8 9 9 10 9 9 9 10 10 10 11 11 11 10 10
3 4 5 5 5 5 5 4 4 4 4 4 5 4 4 3 4 5 5 5 6 6 7 7 7 8 8 9 9 10 10 11 11 11 11 12 12 12 12 12 12 12 12
2 2 4 4 4 5 5 4 4 4 4 5 5 5 4 4 5 5 5 6 7 7 7 7 8 9 10 10 11 11 12 12 12 12 12 12 12 13 13 13 14 14 14
2 2 3 3 4 4 5 5 5 5 5 5 5 5 5 5 6 6 7 7 8 8 9 9 10 10 10 11 11 12 12 12 13 13 13 14 14 14 14 14 15 15 15
1 1 2 2 2 3 4 5 5 5 5 5 5 6 6 6 7 7 8 8 8 9 10 10 10 11 11 11 12 13 13 13 13 14 14 14 15 15 15 15 15 16 16
1 0 1 1 1 2 3 4 4 5 6 7 7 7 7 8 7 8 9 9 10 10 10 11 11 12 12 12 13 13 13 14 14 14 14 15 15 15 15 16 17 17 16
2 1 2 2 2 3 3 4 5 6 6 6 7 7 8 8 9 10 10 10 11 11 11 12 12 12 13 14 14 14 14 14 14 15 15 15 16 16 17 17 17 18 17
4 3 3 3 3 3 4 4 5 6 6 7 7 7 8 9 10 10 11 11 11 11 12 12 13 13 14 15 15 15 15 15 15 15 15 16 16 17 17 17 17 18 18
4 4 4 4 3 4 4 5 6 6 7 7 7 8 8 9 10 11 11 12 12 12 13 13 13 14 14 15 15 15 16 16 16 15 16 16 17 18 18 19 19 19 19
5 5 5 5 5 5 5 6 7 7 8 8 8 9 9 10 11 11 11 12 13 14 14 14 14 15 15 15 15 16 16 16 16 16 17 17 18 18 19 20 20 20 20
7 6 6 6 6 6 7 7 7 9 9 10 10 10 11 11 12 12 12 13 14 14 15 15 15 16 17 17 16 16 17 17 18 18 18 18 19 19 19 19 19 20 20
7 7 7 7 8 8 8 8 8 8 9 10 10 11 11 12 12 13 13 14 14 15 15 15 16 17 17 18 18 18 18 19 19 19 19 19 19 19 20 19 20 20 20
8 8 8 8 8 9 9 9 9 9 10 10 10 11 12 12 13 14 15 16 16 16 16 17 17 17 17 18 18 19 20 20 20 21 20 20 20 20 21 20 21 21 22
10 10 9 9 10 10 10 11 11 11 11 10 10 11 12 13 14 15 15 16 17 17 17 18 18 18 18 18 18 19 20 21 21 21 21 21 22 22 23 23 22 22 23
12 12 11 11 12 12 12 12 11 12 12 11 11 11 12 13 15 16 16 17 17 17 17 18 19 19 19 19 19 19 19 20 21 21 22 22 23 23 23 23 23 24 24
13 13 13 13 13 13 14 14 13 12 12 12 12 13 13 14 14 15 16 16 16 17 17 18 18 20 20 21 20 20 20 21 21 22 22 23 23 23 23 24 25 26 26
14 15 15 15 15 14 14 14 14 15 15 14 14 14 15 15 15 16 16 16 17 17 18 19 19 21 21 21 21 22 22 23 24 24 24 25 25 25 25 25 26 26 27
17 17 16 17 17 17 16 16 16 16 16 16 16 16 16 16 16 17 17 17 18 18 19 20 21 21 22 22 22 23 24 24 25 26 26 26 27 27 27 27 27 28 28
19 18 18 18 18 18 18 18 17 17 18 18 18 18 17 18 18 18 19 19 20 20 21 21 22 22 23 23 24 25 25 25 25 25 26 28 28 28 28 28 28 29 29
20 20 19 19 19 20 20 19 19 18 18 19 19 20 20 20 20 21 21 21 22 23 23 23 24 24 25 25 25 26 26 25 25 26 27 27 28 29 29 29 29 30 30
23 22 21 21 21 21 22 21 21 21 21 20 21 21 22 22 23 23 24 23 24 25 25 25 25 26 26 26 27 27 27 27 27 27 28 29 30 30 30 31 31 32 32
26 25 24 24 23 23 23 23 23 24 24 24 23 24 25 25 26 26 26 26 26 26 26 27 27 28 28 28 28 28 28 29 29 29 30 30 31 31 32 32 33 33 33
28 26 26 25 25 25 25 25 25 26 26 26 26 26 27 27 28 28 28 27 28 28 28 28 29 28 28 28 28 29 30 30 31 31 31 32 32 33 33 33 33 34 34
29 29 27 26 26 27 27 27 27 27 27 28 28 29 29 29 29 29 29 30 30 30 30 29 29 30 30 30 30 31 32 33 33 33 33 34 34 35 34 34 34 34 34

GEFSMA_500_meanwind_198.txt.gz
Wind_Speed
3 3 3 3 3 4 3 4 4 4 4 5 5 4 4 4 4 3 3 2 2 2 2 2 3 3 3 4 4 4 4 4 5 5 6 6 6 6 6 7 7 7 8
2 2 2 3 3 4 4 3 3 3 4 4 4 4 4 4 3 2 3 3 3 3 3 4 4 4 5 5 5 5 5 5 6 6 6 8 8 8 8 8 9 9 9
1 1 2 2 2 3 4 3 3 3 4 4 5 4 4 3 3 3 3 4 4 4 5 5 5 5 5 6 6 7 7 7 8 8 8 8 8 9 9 10 10 10 10
1 1 1 2 3 3 4 3 3 3 4 4 4 4 4 4 3 3 3 4 5 5 6 6 6 6 7 7 8 8 8 9 10 10 9 8 9 9 9 9 10 11 11
1 1 2 3 3 3 4 4 3 3 3 3 3 4 4 4 3 4 4 4 5 6 6 7 7 8 8 8 9 9 9 10 10 10 10 10 10 10 11 11 11 11 12
1 1 2 3 3 3 4 4 4 4 4 4 4 4 4 5 4 5 5 6 6 6 7 8 8 8 8 9 10 10 10 10 10 10 11 11 11 11 12 12 12 12 13
2 1 1 2 3 4 4 4 5 5 6 5 5 5 5 6 6 6 7 7 8 8 8 8 9 9 10 10 10 10 11 11 11 11 11 12 12 12 13 13 13 13 13
3 2 2 2 3 3 4 5 5 5 5 6 6 6 6 7 7 8 8 8 9 9 9 9 10 11 11 12 12 12 13 12 12 12 12 12 12 13 13 14 14 15 14
4 3 3 3 4 4 4 4 5 5 5 5 6 7 8 8 8 9 9 9 9 10 11 11 11 12 12 12 13 13 13 13 13 13 13 13 13 14 14 14 15 15 16
6 5 5 4 4 4 4 5 5 6 6 6 7 8 8 9 9 10 10 10 10 10 11 11 11 11 12 13 13 13 14 14 14 13 14 14 14 14 15 15 16 15 16
6 6 6 6 5 4 5 5 6 7 7 7 8 8 9 10 10 10 10 11 11 12 12 12 13 13 13 13 13 14 15 15 14 15 15 15 15 15 16 16 16 16 16
8 7 7 8 7 6 5 6 7 8 8 9 9 10 10 10 10 10 11 11 12 12 12 13 13 14 14 14 14 15 15 15 16 16 16 16 17 17 17 18 18 18 17
8 9 9 9 8 7 7 7 8 8 9 10 10 11 11 10 11 11 12 12 13 13 13 14 15 15 15 15 16 16 15 15 16 16 17 17 17 17 18 18 18 18 18
9 9 10 10 10 10 9 9 9 9 10 10 10 11 11 11 11 12 13 13 14 14 14 15 15 15 14 15 16 16 16 16 16 17 18 18 18 18 19 19 20 20 19
10 10 11 11 11 11 10 10 10 10 10 10 10 11 12 12 13 14 14 14 15 15 15 15 16 16 16 16 16 16 16 17 17 18 18 19 19 19 20 20 20 20 20
11 11 12 12 12 12 11 11 11 11 11 11 11 12 13 13 14 14 15 15 15 16 16 17 17 17 17 17 17 17 17 18 19 20 20 20 21 21 21 21 21 21 22
13 13 13 13 13 13 13 13 13 13 13 13 13 14 14 14 15 15 15 16 16 16 16 17 17 18 19 19 19 19 19 20 20 21 21 22 21 22 22 22 23 24 24
14 14 15 15 16 15 15 15 16 15 15 15 15 15 15 16 16 16 16 17 17 17 17 17 17 18 19 19 19 20 20 21 20 20 21 22 23 23 22 23 23 24 25
16 16 16 17 17 17 17 16 16 16 17 16 17 17 17 18 17 18 18 18 19 19 19 18 18 19 19 19 20 21 21 21 21 22 22 23 23 23 24 24 25 25 25
18 18 18 19 19 18 19 18 18 18 18 18 18 19 19 19 19 19 19 20 20 20 20 21 21 21 22 22 22 22 23 23 23 24 24 24 24 24 24 25 26 26 27
21 21 21 21 21 21 21 20 20 20 20 20 21 21 21 21 21 21 21 21 22 22 22 23 23 23 24 24 24 24 25 25 25 25 25 25 25 25 26 27 28 28 28
23 23 24 24 24 24 23 23 23 23 22 22 23 23 23 22 22 22 22 23 23 24 24 24 25 25 25 26 26 26 27 27 27 26 26 26 26 26 27 27 28 29 29
24 25 25 26 26 26 26 26 26 26 25 25 24 25 25 25 25 25 24 24 24 25 26 27 27 27 28 28 28 28 28 28 28 27 27 27 28 28 29 29 30 30 30
26 27 28 28 27 28 28 29 29 29 28 27 26 26 27 27 27 27 26 26 26 27 27 27 28 29 29 29 29 28 28 29 29 30 30 30 30 30 30 31 31 31 31
29 29 30 30 30 31 31 31 31 31 29 29 28 28 28 28 28 28 28 28 28 28 29 29 29 29 30 30 30 30 30 30 30 30 31 31 32 32 32 32 32 33 33
32 32 32 32 33 33 33 33 32 31 30 29 29 29 29 29 29 30 30 30 29 29 30 30 30 31 31 31 31 31 31 31 32 31 32 32 33 33 34 34 35 35 35

GEFSMA_500_meanwind_204.txt.gz
Wind_Speed
6 6 6 5 5 4 4 4 5 6 6 6 6 6 6 6 6 6 6 6 6 6 5 5 5 5 5 5 5 5 5 5 5 6 6 7 7 7 8 8 8 8 8
4 5 5 4 4 4 4 4 4 5 5 5 5 5 6 6 6 6 6 5 5 6 6 5 5 6 6 6 6 6 6 7 7 7 7 8 8 8 9 9 9 9 10
4 4 4 4 4 4 4 4 4 5 5 5 5 5 6 6 6 6 6 5 5 5 6 6 6 6 7 7 7 7 8 8 9 8 8 9 9 9 10 10 10 11 10
2 3 3 4 4 4 4 4 5 5 5 5 5 6 6 6 6 6 6 6 6 6 6 7 7 7 7 8 8 8 9 9 10 10 9 9 10 11 11 11 11 11 12
2 2 3 3 4 5 5 5 5 5 5 6 6 6 6 7 7 7 6 6 7 7 8 8 8 8 9 9 9 9 10 10 10 10 10 11 11 11 11 12 12 13 13
1 2 2 3 3 4 4 5 6 6 6 6 6 6 7 7 7 7 7 7 8 8 8 8 8 9 9 9 10 10 10 11 11 11 12 12 12 12 13 13 14 14 13
2 1 1 2 2 3 4 5 6 6 7 7 7 8 8 9 9 8 8 8 9 9 9 9 9 10 10 11 11 11 12 12 12 13 13 13 13 13 13 14 15 15 14
4 3 1 1 2 3 4 5 6 6 7 8 8 8 8 9 9 10 10 10 10 10 10 10 11 11 11 12 13 13 13 13 13 14 14 14 15 15 15 15 15 15 15
4 3 2 1 1 2 4 5 6 7 8 8 8 8 8 8 9 10 11 11 11 12 11 12 12 12 13 13 13 14 14 13 13 13 14 15 15 16 16 16 16 16 16
6 4 3 2 2 3 4 4 5 6 7 8 9 9 9 9 9 10 11 11 12 12 12 11 12 13 13 14 14 13 14 14 14 14 15 15 16 16 17 17 17 17 17
6 6 5 3 2 3 4 4 5 5 6 7 8 9 9 10 10 10 11 11 12 12 13 12 13 13 13 14 14 15 14 14 14 15 15 16 16 17 17 17 17 17 18
6 6 6 5 4 4 4 5 5 6 7 8 9 10 11 11 11 11 11 11 12 13 13 13 14 14 14 14 15 15 15 15 15 15 15 16 17 17 18 18 18 18 18
6 6 6 6 6 5 5 6 6 6 7 8 9 9 11 12 12 12 12 12 12 13 13 14 14 14 15 15 15 15 15 15 15 15 16 16 17 17 18 18 19 19 20
6 6 7 7 7 7 7 7 7 7 7 8 9 10 10 10 11 12 12 12 12 13 13 14 15 15 15 15 15 16 16 17 17 17 18 17 18 18 19 20 20 20 21
7 7 8 8 8 9 8 8 8 8 8 8 9 10 10 10 10 11 12 12 12 13 14 14 14 15 16 16 17 17 17 18 18 19 19 19 19 19 19 19 20 21 21
7 8 8 9 9 9 9 9 9 8 8 9 10 11 11 11 12 12 12 12 13 14 14 14 15 15 15 16 17 17 18 18 18 18 19 20 20 20 20 21 22 22 22
9 9 9 10 10 10 10 9 9 9 10 10 11 12 12 12 13 13 14 14 15 15 16 16 16 16 16 16 16 17 18 18 19 19 20 20 21 22 22 22 22 23 24
10 11 11 12 12 13 12 12 11 11 12 13 13 13 13 13 14 14 15 16 16 17 17 17 17 17 17 18 18 18 19 19 19 20 20 20 21 22 21 22 23 23 23
13 12 13 13 14 14 14 14 14 14 14 14 14 14 14 15 16 16 17 17 18 19 19 19 18 18 19 19 20 20 20 20 20 20 20 21 22 22 22 23 24 24 25
15 15 15 15 16 16 16 17 17 16 16 16 16 16 16 17 17 18 19 20 20 21 21 21 20 20 20 21 21 21 21 21 22 22 22 22 22 23 24 24 24 24 25
17 17 17 18 18 18 18 18 19 18 19 19 18 18 18 19 20 20 21 21 22 22 23 23 23 22 22 22 22 22 22 23 23 24 24 24 24 25 25 25 25 26 26
21 21 20 20 20 20 20 20 20 20 21 21 20 20 20 21 22 22 23 23 24 24 24 25 25 24 24 24 24 24 24 24 24 25 25 25 25 26 27 27 28 28 28
24 24 23 23 22 22 22 22 23 22 22 22 22 22 22 22 23 24 24 24 25 25 25 25 25 25 25 25 25 25 26 26 26 26 26 27 27 28 29 29 30 31 30
25 25 26 25 25 25 26 26 24 24 25 24 24 24 23 24 25 25 25 26 26 26 27 27 27 26 26 26 27 27 27 28 28 28 29 29 29 30 30 31 31 31 32
28 28 28 28 27 27 28 28 27 27 26 26 25 24 25 25 26 26 26 26 27 27 28 28 27 28 28 28 29 30 30 30 30 30 31 31 31 32 32 32 32 33 33
31 31 30 30 30 30 30 29 28 28 27 26 26 26 26 27 27 27 27 28 28 28 28 29 29 29 29 30 30 31 31 32 32 32 33 33 33 33 33 34 34 34 35

GEFSMA_500_meanwind_210.txt.gz
Wind_Speed
5 5 5 5 5 4 4 4 4 4 4 5 5 6 6 5 5 5 5 4 4 4 4 4 4 5 5 5 5 6 6 6 7 7 7 7 8 8 7 7 7 8 8
5 5 5 4 4 3 3 3 4 4 4 5 6 6 6 6 6 6 5 5 5 5 5 5 6 6 6 6 6 7 7 7 8 8 8 8 9 9 8 9 9 9 9
4 4 4 3 3 3 3 4 4 4 4 5 6 6 6 6 7 6 6 6 6 6 6 7 7 7 7 8 8 9 9 9 9 10 10 10 10 10 10 10 10 11 11
3 3 3 3 3 4 4 5 5 4 5 5 5 5 6 7 7 7 7 7 7 7 7 7 8 8 9 9 10 10 11 11 10 10 10 11 11 11 11 12 12 12 12
2 2 3 3 3 4 4 5 5 5 5 6 6 5 6 7 8 7 8 8 8 8 8 9 9 9 10 10 11 12 12 12 12 12 12 12 12 13 12 13 13 13 13
1 2 2 2 3 4 5 5 6 6 7 7 7 7 7 8 8 8 8 9 9 9 9 10 10 11 11 11 12 12 12 13 13 14 14 14 14 14 14 14 14 14 15
1 2 3 3 4 4 5 6 7 7 8 8 8 8 8 9 9 9 9 10 10 11 11 11 11 11 12 12 13 13 13 13 14 14 14 15 15 15 15 14 14 15 16
1 1 2 3 4 5 6 6 7 7 7 8 9 9 9 10 10 10 10 10 11 10 10 11 11 12 12 13 13 13 14 14 15 15 15 15 16 15 15 15 16 16 16
3 3 3 4 5 6 6 6 7 8 8 9 10 10 10 10 11 11 11 11 11 11 11 11 11 12 12 13 14 14 14 14 15 16 16 16 16 16 16 17 17 17 17
3 3 4 4 4 6 6 6 6 7 8 9 10 10 11 11 11 11 12 12 12 12 12 12 13 13 13 14 14 14 14 14 15 15 16 16 16 17 17 17 18 18 18
3 3 4 5 5 5 5 6 7 7 8 8 8 9 11 12 12 12 13 13 13 13 13 13 14 14 14 15 15 15 15 15 15 15 16 17 17 17 17 18 18 18 19
4 4 4 5 5 5 5 6 7 7 7 8 8 9 10 12 12 12 13 13 14 14 14 14 14 14 15 16 16 16 16 16 16 16 17 17 17 18 17 17 18 18 19
5 5 5 6 6 7 6 7 7 8 8 8 9 10 11 11 12 13 13 14 14 14 14 15 15 15 16 16 17 17 17 17 17 17 17 17 17 18 18 19 19 19 20
7 7 7 8 8 8 8 8 8 8 9 9 10 11 11 12 12 13 14 15 14 14 14 15 16 17 17 16 17 18 17 17 17 18 18 18 18 19 19 20 20 20 21
8 9 9 10 10 10 10 9 10 10 10 11 11 12 13 13 13 14 15 15 16 16 16 16 16 17 17 17 17 17 17 18 18 18 19 19 19 20 20 21 21 21 22
10 11 11 11 11 11 12 12 12 12 13 13 14 14 15 15 14 14 15 15 15 15 15 16 17 17 18 17 17 17 18 19 19 19 19 20 21 20 21 21 22 23 23
13 13 14 13 13 13 13 14 15 15 15 15 15 15 16 16 16 16 17 16 16 16 16 16 17 18 18 18 18 19 19 20 20 20 21 21 21 21 22 23 23 24 24
15 15 16 15 15 15 15 16 16 16 17 17 17 17 17 16 16 17 17 17 17 18 18 18 19 19 20 20 20 20 20 20 21 22 22 22 22 23 23 24 24 25 25
18 18 18 18 18 18 18 18 18 18 18 18 18 19 19 19 19 19 18 19 19 20 20 20 21 21 21 22 22 22 23 23 23 23 23 24 24 24 24 25 25 25 25
21 20 20 20 20 21 21 21 21 21 20 20 20 21 21 21 20 20 19 19 20 21 22 22 22 22 23 24 24 24 25 25 25 25 25 25 25 25 25 25 25 25 26
22 22 21 21 22 22 23 23 24 23 23 23 23 23 23 22 22 22 22 22 22 22 23 24 24 24 24 25 25 26 26 26 27 27 27 28 28 28 27 27 27 27 27
24 23 23 24 24 24 25 25 25 25 25 25 25 25 24 24 24 24 24 24 24 24 24 25 26 26 26 26 27 28 28 28 28 28 29 29 29 29 29 29 29 30 30
26 26 26 26 26 25 25 26 26 27 27 27 27 27 27 26 26 26 26 26 26 26 26 26 27 28 28 28 29 29 29 30 30 30 30 31 32 32 32 31 31 31 32
30 30 29 28 28 28 28 27 28 28 28 28 27 28 28 29 29 29 29 29 29 29 29 28 28 29 30 30 29 30 30 31 31 31 32 32 33 33 33 33 33 33 33
32 32 32 31 30 30 31 30 30 29 29 28 28 29 30 30 31 32 32 32 32 32 32 31 30 30 30 30 30 30 30 31 31 32 33 33 33 34 35 35 35 35 35
33 33 33 33 33 32 32 32 32 31 30 30 30 31 32 33 33 34 33 32 32 33 33 33 32 32 31 31 31 31 32 32 32 32 33 34 35 35 35 35 36 36 36

GEFSMA_500_meanwind_216.txt.gz
Wind_Speed
5 5 5 5 6 7 7 6 6 6 6 7 6 6 6 6 6 6 5 5 5 5 4 4 4 5 4 5 5 5 5 5 6 7 7 8 8 8 8 8 8 8 8
5 5 5 5 5 5 5 5 6 5 6 6 6 6 6 7 6 6 6 6 5 5 5 5 5 6 5 6 6 6 7 7 7 7 8 8 8 8 9 9 10 9 9
5 5 5 5 5 5 4 4 5 5 5 6 6 6 7 7 7 7 7 6 6 6 6 6 6 6 6 7 7 8 8 8 8 8 9 9 9 10 10 10 11 11 11
4 4 4 4 4 5 5 5 5 5 5 6 6 7 7 8 8 8 8 7 7 7 7 7 8 8 8 9 9 10 10 10 10 9 10 10 11 11 12 11 12 12 12
3 3 3 3 4 5 6 6 6 6 6 6 6 6 7 8 9 9 8 8 8 9 9 9 9 9 10 10 10 10 11 11 11 11 11 12 11 12 12 13 13 12 13
2 1 2 2 3 4 5 6 7 7 7 7 7 8 8 8 9 9 9 9 9 10 10 10 10 10 10 10 10 10 11 11 11 12 12 13 13 12 12 12 12 13 13
1 1 1 2 2 3 5 6 6 7 7 8 8 8 9 9 9 10 9 9 9 9 10 10 10 10 11 11 11 12 11 12 12 13 13 13 13 13 12 12 13 14 14
0 1 1 2 3 3 5 6 7 8 8 8 8 8 9 10 10 11 11 10 10 10 10 10 10 11 12 12 12 12 13 13 13 14 14 14 13 13 14 14 14 15 15
1 2 2 2 3 3 3 5 5 7 8 8 8 8 9 10 11 11 12 11 11 11 11 11 12 12 12 12 12 12 12 13 14 14 14 14 14 14 14 15 15 15 15
3 3 2 3 3 4 4 4 5 6 7 8 9 9 9 10 11 12 12 12 12 12 12 13 13 13 13 13 12 12 13 14 14 14 15 15 15 14 15 15 15 15 16
4 4 4 4 5 5 5 5 5 6 8 8 9 10 10 10 11 12 12 12 13 13 13 13 14 14 14 14 14 14 14 15 15 15 15 15 16 16 16 16 16 16 16
5 5 5 6 6 6 6 7 7 7 8 8 9 9 10 11 11 11 12 13 13 14 14 13 14 14 15 15 15 15 16 16 16 16 16 16 16 17 17 16 17 17 18
7 7 7 7 8 9 9 9 9 9 9 10 10 11 11 12 13 13 14 15 15 15 15 15 15 15 16 16 16 16 16 17 17 17 16 17 17 17 18 18 18 19 20
9 9 9 9 10 10 10 10 10 11 11 11 11 11 12 13 13 14 15 15 15 15 16 17 17 17 17 17 17 17 18 18 18 18 18 17 18 19 19 20 20 21 21
12 11 11 11 11 11 11 11 11 12 12 12 12 13 13 14 14 14 15 15 16 16 17 18 19 19 19 19 18 18 18 17 18 19 19 19 19 20 21 20 21 22 23
14 14 14 14 14 13 13 13 13 13 13 13 14 14 14 15 16 16 16 17 17 18 18 19 19 20 20 19 19 19 18 18 19 19 20 20 20 20 21 21 22 23 23
17 17 17 17 16 16 16 15 15 15 15 15 16 16 17 17 17 17 18 18 19 19 19 19 20 20 20 20 20 21 21 21 21 21 21 21 21 22 22 23 24 24 24
18 19 20 19 19 19 19 18 18 17 17 17 17 18 18 19 19 19 19 19 19 19 20 20 20 21 21 22 22 22 22 23 23 23 23 23 23 23 24 25 24 25 25
20 20 21 22 21 21 21 21 20 20 19 19 19 19 20 20 20 20 20 20 20 20 20 20 21 22 22 23 24 24 24 24 25 25 25 26 26 26 26 26 26 26 26
23 24 24 24 24 23 22 23 23 22 22 21 22 22 23 22 23 22 22 22 23 23 22 22 22 23 23 24 24 25 26 26 27 27 27 28 27 28 28 27 27 27 28
26 26 26 26 26 26 26 25 25 25 25 24 24 24 24 25 25 25 25 25 26 26 25 25 25 25 24 25 25 26 27 28 28 28 29 29 29 29 29 28 28 28 29
27 28 28 28 28 27 28 28 27 27 27 26 25 26 26 27 28 28 28 28 27 27 27 27 27 28 27 28 28 28 29 29 29 28 28 29 30 30 30 30 30 31 31
29 30 30 30 30 30 29 29 29 28 27 27 27 27 27 27 29 29 29 29 29 29 29 30 30 30 30 30 30 30 30 31 30 30 30 30 30 30 31 31 32 33 34
30 31 32 32 32 32 31 31 31 29 29 29 28 28 29 29 30 30 30 30 31 31 31 31 32 32 32 32 32 32 32 32 31 31 31 32 32 32 32 32 33 33 33
34 34 34 33 33 33 32 32 32 32 31 30 30 30 30 30 31 31 32 32 33 32 33 34 33 33 33 33 33 33 33 33 33 33 32 32 33 33 33 34 35 34 34
35 35 36 35 35 34 34 34 34 33 33 32 31 31 31 31 32 33 34 34 34 34 35 35 35 34 34 34 34 34 34 34 34 34 33 34 34 35 35 35 35 35 35